This is the latest recevied weather packets stored in our database for station/object WI0K. If no packets are shown the sender has not sent any weather packets the latest 10 day(s).
| Time | Temp. | Humidity | Pressure | Rain* | Wind** | Luminosity | Snow |
|---|---|---|---|---|---|---|---|
| 1777548439 | 4.44° C | 89% | 833.1 hPa | 0 mm | - | 0 W/m² | - |
| 1777548139 | 4.44° C | 89% | 1020.4 hPa | 0 mm | - | 0 W/m² | - |
| 1777547838 | 4.44° C | 89% | 833.1 hPa | 0 mm | - | 0 W/m² | - |
| 1777547537 | 4.44° C | 89% | 1020.4 hPa | 0 mm | - | 0 W/m² | - |
| 1777547236 | 4.44° C | 88% | 833.1 hPa | 0.25 mm | - | 0 W/m² | - |
| 1777546936 | 4.44° C | 87% | 1020.3 hPa | 0.25 mm | - | 0 W/m² | - |
| 1777546635 | 4.44° C | 87% | 1020.3 hPa | 0.25 mm | - | 0 W/m² | - |
| 1777546334 | 4.44° C | 88% | 1020.3 hPa | 0.51 mm | - | 0 W/m² | - |
| 1777546034 | 4.44° C | 89% | 1020.3 hPa | 0.51 mm | - | 0 W/m² | - |
| 1777545733 | 4.44° C | 89% | 1020.3 hPa | 0.76 mm | - | 0 W/m² | - |
| 1777545432 | 4.44° C | 89% | 833.1 hPa | 0.76 mm | - | 0 W/m² | - |
| 1777545132 | 4.44° C | 90% | 1020.4 hPa | 0.76 mm | - | 0 W/m² | - |
| 1777544831 | 4.44° C | 91% | 833.2 hPa | 0.76 mm | - | 0 W/m² | - |
| 1777544530 | 4.44° C | 91% | 833.2 hPa | 0.76 mm | - | 0 W/m² | - |
| 1777544230 | 4.44° C | 92% | 833.2 hPa | 0.76 mm | - | 0 W/m² | - |
| 1777543929 | 5° C | 92% | 833.2 hPa | 0.76 mm | - | 0 W/m² | - |
| 1777543628 | 5° C | 92% | 1020.5 hPa | 0.76 mm | - | 0 W/m² | - |
| 1777543328 | 5° C | 92% | 833.2 hPa | 0.76 mm | - | 0 W/m² | - |
| 1777543027 | 5° C | 88% | 833.3 hPa | 0.76 mm | - | 0 W/m² | - |
| 1777542726 | 5° C | 91% | 833.3 hPa | 0.76 mm | - | 0 W/m² | - |
| 1777542426 | 5.56° C | 90% | 833.3 hPa | 0.51 mm | - | 0 W/m² | - |
| 1777542125 | 5.56° C | 91% | 833.2 hPa | 0.51 mm | - | 0 W/m² | - |
| 1777541824 | 5.56° C | 90% | 833.1 hPa | 0.51 mm | - | 0 W/m² | - |
| 1777541524 | 5.56° C | 88% | 833.2 hPa | 0.25 mm | - | 0 W/m² | - |
| 1777541223 | 5.56° C | 88% | 833.1 hPa | 0.25 mm | - | 0 W/m² | - |
* Rain latest hour (hover to see other rain measurements)
** Current wind speed in m/s (hover to see current wind gust speed)